CW2303 Weather Reports


Display with metric or nautical units.
time (UTC)temp
F
wind
direction
speed
MPH
gust
MPH
rain 1hr
in
rain 24hr
in
rain mn
in
humidity
%
barometer
mb
20260504194552 78 216 7.0 24.0 0.00 0.00 0.00 45 1006.8
20260504194045 79 173 7.0 15.0 0.00 0.00 0.00 47 1006.7
20260504193545 78 133 6.0 19.0 0.00 0.00 0.00 49 1006.8
20260504193055 78 148 7.0 19.0 0.00 0.00 0.00 48 1006.9
20260504192542 78 261 5.0 16.0 0.00 0.00 0.00 46 1006.8
20260504192044 78 204 7.0 16.0 0.00 0.00 0.00 47 1006.9
20260504191600 78 236 7.0 16.0 0.00 0.00 0.00 48 1007.0
20260504191042 78 180 7.0 16.0 0.00 0.00 0.00 48 1007.1
20260504190543 78 209 7.0 16.0 0.00 0.00 0.00 49 1007.0
20260504190052 78 226 6.0 15.0 0.00 0.00 0.00 48 1007.1
20260504185542 78 167 7.0 18.0 0.00 0.00 0.00 46 1007.1
20260504185043 78 185 6.0 18.0 0.00 0.00 0.00 49 1007.0
20260504184557 78 199 6.0 16.0 0.00 0.00 0.00 51 1007.2
20260504184043 78 168 7.0 16.0 0.00 0.00 0.00 49 1007.2
20260504183542 78 163 6.0 14.0 0.00 0.00 0.00 50 1007.1
20260504183053 78 138 5.0 13.0 0.00 0.00 0.00 53 1007.2
20260504182546 77 207 6.0 14.0 0.00 0.00 0.00 50 1007.1
20260504182042 77 231 8.0 16.0 0.00 0.00 0.00 51 1007.1
20260504181554 77 132 8.0 16.0 0.00 0.00 0.00 50 1007.1
20260504181043 78 162 8.0 15.0 0.00 0.00 0.00 49 1007.0
20260504180544 78 176 6.0 16.0 0.00 0.00 0.00 51 1007.2
20260504180055 78 172 6.0 16.0 0.00 0.00 0.00 52 1007.1
20260504175543 78 252 6.0 16.0 0.00 0.00 0.00 50 1007.1
20260504175043 77 218 6.0 14.0 0.00 0.00 0.00 52 1007.1
20260504174602 77 134 6.0 14.0 0.00 0.00 0.00 53 1007.2
20260504174043 77 195 8.0 14.0 0.00 0.00 0.00 51 1007.2
20260504173543 77 190 7.0 14.0 0.00 0.00 0.00 50 1007.3
20260504173100 77 180 7.0 15.0 0.00 0.00 0.00 51 1007.3
20260504172543 77 204 7.0 18.0 0.00 0.00 0.00 50 1007.3
20260504172042 77 229 7.0 18.0 0.00 0.00 0.00 50 1007.2
20260504171554 77 235 6.0 12.0 0.00 0.00 0.00 50 1007.2
20260504171043 77 179 5.0 14.0 0.00 0.00 0.00 52 1007.3
20260504170542 76 160 6.0 17.0 0.00 0.00 0.00 53 1007.2
20260504151043 71 149 8.0 16.0 0.00 0.00 0.00 54 1008.4
20260504150543 71 220 4.0 18.0 0.00 0.00 0.00 56 1008.5
20260504150103 70 212 6.0 18.0 0.00 0.00 0.00 53 1008.6
20260504141042 68 211 5.0 14.0 0.00 0.00 0.00 58 1008.9
20260504140542 67 196 4.0 14.0 0.00 0.00 0.00 59 1009.0
20260504130551 62 194 4.0 8.0 0.00 0.00 0.00 65 1009.3
20260504110543 58 150 1.0 7.0 0.00 0.00 0.00 68 1009.8
20260504100542 58 164 2.0 10.0 0.00 0.00 0.00 69 1009.8
20260504090104 59 190 0.0 8.0 0.00 0.00 0.00 67 1009.9
20260504081602 61 159 3.0 8.0 0.00 0.00 0.00 64 1010.0
20260504081043 61 201 2.0 6.0 0.00 0.00 0.00 64 1010.1
20260504080544 61 213 2.0 6.0 0.00 0.00 0.00 64 1010.2
20260504050543 63 174 3.0 8.0 0.00 0.00 0.00 60 1011.3
20260504045543 63 142 3.0 9.0 0.00 0.00 0.00 61 1011.4
20260504045042 63 190 2.0 8.0 0.00 0.00 0.00 61 1011.4
20260504044559 63 199 3.0 8.0 0.00 0.00 0.00 61 1011.4
20260504044043 63 161 2.0 8.0 0.00 0.00 0.00 62 1011.5
20260504043543 63 202 1.0 8.0 0.00 0.00 0.00 62 1011.6
20260504043057 62 173 2.0 8.0 0.00 0.00 0.00 62 1011.6
20260504042543 62 201 2.0 6.0 0.00 0.00 0.00 62 1011.6
20260504042043 62 192 2.0 6.0 0.00 0.00 0.00 62 1011.7
20260504041553 62 177 1.0 5.0 0.00 0.00 0.00 62 1011.7
20260504041046 62 179 1.0 5.0 0.00 0.00 0.00 62 1011.7
20260504040543 62 170 1.0 4.0 0.00 0.00 0.00 62 1011.8
20260504040106 62 167 1.0 4.0 0.00 0.00 0.00 62 1011.7
20260504035543 62 164 1.0 4.0 0.00 0.00 0.00 62 1011.8
20260504035042 62 158 1.0 4.0 0.00 0.00 0.00 62 1011.8
20260504034612 62 168 1.0 4.0 0.00 0.00 0.00 61 1011.8
20260504034043 62 191 1.0 4.0 0.00 0.00 0.00 61 1011.9
20260504033546 62 188 1.0 8.0 0.00 0.00 0.00 61 1011.9
20260504033056 62 178 2.0 8.0 0.00 0.00 0.00 61 1011.9
20260504032543 62 159 1.0 5.0 0.00 0.00 0.00 61 1012.1
20260504032046 62 169 1.0 3.0 0.00 0.00 0.00 61 1012.0
20260504031550 62 182 1.0 3.0 0.00 0.00 0.00 62 1012.1
20260504031043 62 163 0.0 2.0 0.00 0.00 0.00 62 1012.1
20260504030543 62 159 1.0 3.0 0.00 0.00 0.00 61 1012.1
20260504030118 62 163 1.0 3.0 0.00 0.00 0.00 61 1012.2
20260504025545 62 148 0.0 2.0 0.00 0.00 0.00 61 1012.2
20260504025042 62 165 0.0 3.0 0.00 0.00 0.00 61 1012.2
20260504024559 62 157 0.0 3.0 0.00 0.00 0.00 60 1012.3
20260504024044 62 152 0.0 1.0 0.00 0.00 0.00 60 1012.2
20260504023545 62 0 0.0 1.0 0.00 0.00 0.00 59 1012.2
20260504023055 63 158 0.0 1.0 0.00 0.00 0.00 59 1012.1
20260504022546 63 0 0.0 1.0 0.00 0.00 0.00 58 1012.2
20260504022045 63 147 0.0 1.0 0.00 0.00 0.00 58 1012.1
20260504021554 63 0 0.0 1.0 0.00 0.00 0.00 58 1012.1
20260504021045 64 144 0.0 1.0 0.00 0.00 0.00 57 1012.1
20260504020547 64 0 0.0 1.0 0.00 0.00 0.00 57 1012.1
20260504020106 64 157 0.0 1.0 0.00 0.00 0.00 56 1012.1
20260504015544 64 0 0.0 0.0 0.00 0.00 0.00 55 1012.1
20260504015045 65 0 0.0 1.0 0.00 0.00 0.00 54 1012.1
20260504014556 65 0 0.0 1.0 0.00 0.00 0.00 54 1012.1
20260504014042 66 188 0.0 1.0 0.00 0.00 0.00 53 1012.1
20260504013545 66 0 0.0 1.0 0.00 0.00 0.00 52 1011.9
20260504013054 66 0 0.0 2.0 0.00 0.00 0.00 51 1011.9
20260504012545 67 196 0.0 2.0 0.00 0.00 0.00 49 1011.9
20260504012048 67 155 0.0 2.0 0.00 0.00 0.00 47 1011.9
20260504011548 68 0 0.0 1.0 0.00 0.00 0.00 47 1011.8
20260504011044 68 0 0.0 2.0 0.00 0.00 0.00 46 1011.9
20260504010544 69 0 0.0 2.0 0.00 0.00 0.00 45 1011.9
20260504010051 69 198 0.0 3.0 0.00 0.00 0.00 43 1011.9
20260504005545 70 207 0.0 3.0 0.00 0.00 0.00 43 1011.8
20260504005048 70 210 0.0 2.0 0.00 0.00 0.00 43 1011.9
20260504004552 70 200 0.0 2.0 0.00 0.00 0.00 43 1011.8
20260504004044 71 225 1.0 2.0 0.00 0.00 0.00 42 1011.9
20260504003544 71 227 0.0 3.0 0.00 0.00 0.00 43 1011.9
20260504003051 71 233 1.0 3.0 0.00 0.00 0.00 42 1011.9
20260504002545 72 233 1.0 3.0 0.00 0.00 0.00 42 1011.9
20260504002045 72 239 1.0 4.0 0.00 0.00 0.00 42 1012.0
20260504001606 73 215 1.0 4.0 0.00 0.00 0.00 41 1011.9
20260504001045 73 228 1.0 5.0 0.00 0.00 0.00 39 1012.0
20260504000546 73 259 1.0 7.0 0.00 0.00 0.00 40 1012.0
20260504000057 74 249 2.0 7.0 0.00 0.00 0.00 38 1012.0
20260503235543 74 251 2.0 8.0 0.00 0.00 0.00 37 1012.0
20260503235046 74 230 3.0 8.0 0.00 0.00 0.00 41 1012.0
20260503234555 74 234 4.0 8.0 0.00 0.00 0.00 38 1012.1
20260503234043 74 230 2.0 8.0 0.00 0.00 0.00 37 1012.0
20260503233543 74 217 3.0 8.0 0.00 0.00 0.00 39 1012.1
20260503233100 75 227 3.0 10.0 0.00 0.00 0.00 36 1012.1
20260503232543 75 246 3.0 11.0 0.00 0.00 0.00 36 1012.1
20260503232043 75 174 3.0 11.0 0.00 0.00 0.00 37 1012.1
20260503231555 75 233 3.0 9.0 0.00 0.00 0.00 36 1012.1
20260503231044 75 248 3.0 9.0 0.00 0.00 0.00 35 1012.2
20260503230544 75 202 3.0 9.0 0.00 0.00 0.00 35 1012.2
20260503230053 76 217 4.0 13.0 0.00 0.00 0.00 34 1012.2
20260503225543 76 226 2.0 13.0 0.00 0.00 0.00 37 1012.2
20260503225043 76 261 4.0 11.0 0.00 0.00 0.00 34 1012.2
20260503224554 76 221 5.0 14.0 0.00 0.00 0.00 34 1012.3
20260503224043 77 247 5.0 14.0 0.00 0.00 0.00 34 1012.2
20260503223543 77 217 3.0 15.0 0.00 0.00 0.00 33 1012.2
20260503223053 77 229 5.0 19.0 0.00 0.00 0.00 33 1012.3
20260503222544 77 240 7.0 19.0 0.00 0.00 0.00 34 1012.3
20260503222043 77 257 4.0 17.0 0.00 0.00 0.00 35 1012.4
20260503221554 77 263 9.0 17.0 0.00 0.00 0.00 32 1012.3
20260503221043 78 264 5.0 14.0 0.00 0.00 0.00 34 1012.3
20260503220543 78 252 2.0 14.0 0.00 0.00 0.00 36 1012.4
20260503220055 77 240 6.0 14.0 0.00 0.00 0.00 32 1012.5
20260503215543 77 244 6.0 13.0 0.00 0.00 0.00 37 1012.4
20260503215042 77 246 5.0 15.0 0.00 0.00 0.00 34 1012.5
20260503214601 77 237 6.0 15.0 0.00 0.00 0.00 34 1012.5
20260503214042 77 239 8.0 15.0 0.00 0.00 0.00 34 1012.7
20260503213542 78 216 4.0 17.0 0.00 0.00 0.00 36 1012.7
20260503213054 77 200 6.0 17.0 0.00 0.00 0.00 33 1012.8
20260503212544 77 229 5.0 12.0 0.00 0.00 0.00 34 1012.9
20260503212045 77 219 6.0 12.0 0.00 0.00 0.00 34 1013.0
20260503211554 77 228 7.0 13.0 0.00 0.00 0.00 35 1013.1
20260503211043 77 185 4.0 13.0 0.00 0.00 0.00 40 1013.2
20260503210543 77 227 6.0 19.0 0.00 0.00 0.00 37 1013.2
20260503210051 77 246 5.0 19.0 0.00 0.00 0.00 37 1013.3
20260503205543 77 253 7.0 19.0 0.00 0.00 0.00 34 1013.3
20260503205043 77 254 4.0 13.0 0.00 0.00 0.00 37 1013.4
20260503204559 77 261 3.0 13.0 0.00 0.00 0.00 38 1013.5
20260503204042 77 263 5.0 12.0 0.00 0.00 0.00 33 1013.5
20260503203543 77 207 3.0 10.0 0.00 0.00 0.00 41 1013.6
20260503203052 77 130 3.0 12.0 0.00 0.00 0.00 40 1013.6
20260503202543 77 223 4.0 13.0 0.00 0.00 0.00 39 1013.7
20260503202043 77 245 4.0 13.0 0.00 0.00 0.00 34 1013.8
20260503201553 77 144 3.0 12.0 0.00 0.00 0.00 45 1013.8
20260503201055 76 254 5.0 12.0 0.00 0.00 0.00 37 1013.9
20260503200542 76 217 4.0 12.0 0.00 0.00 0.00 42 1014.1
20260503200056 76 164 6.0 16.0 0.00 0.00 0.00 41 1014.2
20260503195544 76 161 6.0 16.0 0.00 0.00 0.00 41 1014.5
20260503195043 76 188 5.0 16.0 0.00 0.00 0.00 41 1014.5